User: anonymous   Login
Location: Unspecified
(0.0000°N, 0.0000°E)
Time: 08:43:41
(UTC+00:00)
Language:

MERIDIAN 4 - Orbit

View from above orbital plane
View from above orbital plane
View from above satellite
View from above satellite

Ground track
Ground track

The orbit data is extracted from the following two-line orbital elements,

1 37398U 11018A   17293.69398712  .00000210  00000-0  10000-3 0  9995
2 37398  64.4937 151.8440 6807895 263.7978  46.0169  2.00589733 47355
Epoch (UTC): 20 October 2017 16:39:20
Eccentricity: 0.6807895
inclination: 64.4937°
perigee height: 2099 km
apogee height: 38260 km
right ascension of ascending node: 151.8440°
argument of perigee: 263.7978°
revolutions per day: 2.00589733
mean anomaly at epoch: 46.0169°
orbit number at epoch: 4735

The dashed part of the orbit path shows where the satellite is in the earth's shadow,  

DLR